Weather History for Henderson, NV

Change the Weather History Date:

Wednesday, May 15, 2013

  Actual Average (KLAS) Record (KLAS)
Temperature  
Mean Temperature 82 °F 77 °F  
Max Temperature 95 °F 89 °F 107 °F (1937)
Min Temperature 70 °F 66 °F 44 °F (1968)
Degree Days  
Heating Degree Days 0 0  
Month to date heating degree days 4  
Since 1 July heating degree days 1947  
Cooling Degree Days 18 12  
Month to date cooling degree days 152  
Year to date cooling degree days 312  
Growing Degree Days 32 (Base 50)    
Moisture  
Dew Point 30 °F    
Average Humidity 15    
Maximum Humidity 25    
Minimum Humidity 9    
Precipitation  
Precipitation 0.00 in 0.01 in 0.13 in (1981)
Month to date precipitation 0.06  
Year to date precipitation 1.95  
Snow  
Snow 0.00 in 0.00 in 0.00 in ()
Month to date snowfall 0.0  
Since 1 July snowfall 0.3  
Snow Depth -    
Sea Level Pressure  
Sea Level Pressure 29.76 in    
Wind  
Wind Speed 15 mph (SSW)    
Max Wind Speed 24 mph    
Max Gust Speed 41 mph    
Visibility 10 miles    
Events      
T = Trace of Precipitation, MM = Missing Value Source: NWS Daily Summary

Daily Weather History Graph

Daily Weather History Graph

Search for Another Location

Airport:

Trip Planner

Search our weather history database for the weather conditions in past years. The results will help you decide how hot, cold, wet, or windy it might be!

Date:

Astronomy

May. 15, 2013 Rise Set
Actual Time 5:34 AM PDT 7:39 PM PDT
Civil Twilight 5:06 AM PDT 8:08 PM PDT
Nautical Twilight 4:31 AM PDT 8:43 PM PDT
Astronomical Twilight 3:53 AM PDT 9:20 PM PDT
Moon 10:12 AM PDT (5/15) No Moon Set
Length of Visible Light 15h 02m
Length of Day
14h 05m
Waxing Crescent, 28% of the Moon is Illuminated
May 15
Waxing Crescent
May 17
First Quarter
May 24
Full
May 31
Last Quarter
Jun 8
New

Hourly Weather History & Observations

Time (PDT) Temp. Dew Point Humidity Pressure Visibility Wind Dir Wind Speed Gust Speed Precip Events Conditions
12:56 AM 77.9 °F 24.1 °F 14% 29.75 in 10.0 mi WSW 19.6 mph 41.4 mph N/A   Clear
1:56 AM 75.9 °F 26.1 °F 16% 29.76 in 10.0 mi SW 15.0 mph 21.9 mph N/A   Clear
2:56 AM 73.9 °F 28.0 °F 18% 29.74 in 10.0 mi South 17.3 mph - N/A   Clear
3:56 AM 72.9 °F 31.1 °F 21% 29.78 in 10.0 mi SSW 11.5 mph 16.1 mph N/A   Clear
4:56 AM 70.9 °F 32.0 °F 24% 29.77 in 10.0 mi SSW 17.3 mph - N/A   Clear
5:56 AM 70.9 °F 32.9 °F 25% 29.79 in 10.0 mi South 15.0 mph - N/A   Clear
6:56 AM 73.9 °F 32.9 °F 22% 29.81 in 10.0 mi SSW 15.0 mph - N/A   Clear
7:56 AM 77.9 °F 34.0 °F 20% 29.82 in 10.0 mi South 12.7 mph - N/A   Clear
8:56 AM 81.0 °F 34.0 °F 18% 29.83 in 10.0 mi SSW 16.1 mph - N/A   Clear
9:56 AM 82.9 °F 32.9 °F 16% 29.83 in 10.0 mi SSW 13.8 mph - N/A   Clear
10:56 AM 86.9 °F 32.9 °F 14% 29.83 in 10.0 mi SW 9.2 mph - N/A   Clear
11:56 AM 90.0 °F 32.9 °F 13% 29.81 in 10.0 mi Calm Calm - N/A   Clear
12:56 PM 91.9 °F 32.9 °F 12% 29.79 in 10.0 mi Variable 5.8 mph - N/A   Clear
1:56 PM 92.8 °F 31.1 °F 11% 29.77 in 10.0 mi Calm Calm - N/A   Clear
2:38 PM 95.0 °F 28.4 °F 9% 29.83 in 10.0 mi SSW 12.7 mph 25.3 mph N/A   Clear
2:56 PM 95.9 °F 29.1 °F 9% 29.74 in 10.0 mi SW 17.3 mph 23.0 mph N/A   Clear
3:56 PM 95.9 °F 30.0 °F 10% 29.72 in 10.0 mi SSW 23.0 mph 28.8 mph N/A   Clear
4:56 PM 95.9 °F 29.1 °F 9% 29.71 in 10.0 mi SW 17.3 mph 28.8 mph N/A   Clear
5:56 PM 93.9 °F 30.0 °F 10% 29.70 in 10.0 mi SW 17.3 mph - N/A   Clear
6:56 PM 91.9 °F 28.0 °F 10% 29.70 in 10.0 mi SW 16.1 mph 24.2 mph N/A   Clear
7:56 PM 88.9 °F 29.1 °F 12% 29.70 in 10.0 mi SSW 10.4 mph - N/A   Clear
8:56 PM 86.9 °F 26.1 °F 11% 29.71 in 10.0 mi SSW 21.9 mph 27.6 mph N/A   Clear
9:56 PM 84.9 °F 21.0 °F 10% 29.72 in 10.0 mi SW 16.1 mph - N/A   Clear
10:56 PM 82.9 °F 28.0 °F 14% 29.71 in 10.0 mi SSW 24.2 mph 29.9 mph N/A   Clear
11:56 PM 79.0 °F 31.1 °F 17% 29.72 in 10.0 mi South 18.4 mph - N/A   Clear